Aeroporto :
LOGIN :

Iscrizione | Disclaimer

   EN    FR    IT 

 










Sommario :    VFR   VFR Marginale   IFR   IFR Intensivo   IFR Molto Intensivo
Visibilità : 
Base nubi : 
>= 8 km
>= 3000ft
5 / 8 km
1000 / 3000 ft
1500m / 5 km
500 / 1000 ft
800 / 1500m
200 / 500 ft
< 800m
< 200 ft
Simboli :   Temporali  Nebbia  Neve Forte  Precipitazioni Forti  Vento > 20 kt
SIGMETs :   Varie  Temporali  Ghiacco  Turbolenza  Onda orograficha  Ceneri Vulcaniche







- Altitudine del aeroporto : 18 ft


LIPC - Cervia AFB Ravenna

ULTIMO METAR :
  • 182355Z 25003KT 3000 BR NSC 13/11 Q1016 RMK SKC VIS MIN 3000 WIND THR11 24003KT WIND THR29 24003KT YLO

METARs OBSOLETI :
  • 182255Z 33003KT 3000 BR NSC 13/11 Q1016 RMK SKC VIS MIN 3000 WIND THR11 32003KT WIND THR29 32003KT YLO
  • 182155Z 24004KT 3000 BR NSC 14/13 Q1016 RMK SKC VIS MIN 3000 WIND THR11 24005KT WIND THR29 25003KT YLO

TAF TAF LIPC
Valido dal 19 a 00 ore il 19 a 09 ore UTC


182300Z 1900/1909 11003KT 3000 BR NSC
TEMPO 1900/1907 1200 BR
PROB40
TEMPO 1900/1907 0600 BCFG SCT003
Nessun NOTAM noto per questo aeroporto.



MetMap, La meteo Aeronautica in un colpo d'occhio ! - Copyright ORBIFLY Dicembre 2007 - Disclaimer

ORBIFLY MET'MAP TEAM :

Programmazione e sviluppo : Alexandra Zaïnal
Concezione e sviluppo : Baudouin d'Aumeries
Co-Programmazione e sviluppo : Marc-Olivier Méhu
Supporto tecnico e logistico : Manuel Goepfert
Aiuto per la traduzione : Arnaldo La Scala

Contatto : metmap@orbifly.com




FONTI E CREDITI :

   NOAA